EW7868 Weather Reports


Display with metric or nautical units.
time (UTC)temp
F
wind
direction
speed
MPH
gust
MPH
rain 1hr
in
rain 24hr
in
rain mn
in
humidity
%
barometer
mb
20260905204526 87 294 1.0 3.0 0.00 0.00 0.00 73 1012.4
20260905204021 87 74 3.0 5.0 0.00 0.00 0.00 72 1012.1
20260905203521 86 86 3.0 4.0 0.00 0.00 0.00 73 1012.2
20260905203016 86 81 0.0 4.0 0.00 0.00 0.00 73 1012.1
20260905202511 87 90 2.0 6.0 0.00 0.00 0.00 72 1012.4
20260905202007 88 111 0.0 6.0 0.00 0.00 0.00 71 1012.3
20260905201502 87 90 0.0 3.0 0.00 0.00 0.00 71 1012.2
20260905201001 88 94 3.0 5.0 0.00 0.00 0.00 71 1012.3
20260905200457 89 81 2.0 4.0 0.00 0.00 0.00 69 1012.4
20260905195955 88 81 0.0 4.0 0.00 0.00 0.00 70 1012.1
20260905195451 88 107 3.0 4.0 0.00 0.00 0.00 71 1012.2
20260905194946 88 90 0.0 3.0 0.00 0.00 0.00 72 1012.2
20260905194446 87 84 2.0 4.0 0.00 0.00 0.00 72 1012.0
20260905193940 88 90 2.0 3.0 0.00 0.00 0.00 73 1012.2
20260905193435 87 81 2.0 3.0 0.00 0.00 0.00 73 1012.3
20260905192930 88 90 3.0 5.0 0.00 0.00 0.00 71 1012.4
20260905192425 87 106 2.0 4.0 0.00 0.00 0.00 73 1012.1
20260905191920 88 67 2.0 6.0 0.00 0.00 0.00 72 1012.4
20260905191419 88 90 1.0 5.0 0.00 0.00 0.00 71 1012.3
20260905190914 88 85 2.0 3.0 0.00 0.00 0.00 72 1012.4
20260905190412 89 121 0.0 7.0 0.00 0.00 0.00 69 1012.2
20260905185910 89 71 2.0 3.0 0.00 0.00 0.00 70 1012.4
20260905185406 88 72 3.0 6.0 0.00 0.00 0.00 71 1012.5
20260905184904 90 106 1.0 5.0 0.00 0.00 0.00 69 1012.7
20260905184359 89 96 2.0 5.0 0.00 0.00 0.00 70 1012.3
20260905183857 90 74 1.0 5.0 0.00 0.00 0.00 68 1012.4
20260905183352 90 74 0.0 3.0 0.00 0.00 0.00 70 1012.5
20260905182847 91 60 0.0 3.0 0.00 0.00 0.00 68 1012.5
20260905182341 91 293 0.0 5.0 0.00 0.00 0.00 68 1012.6
20260905181837 91 300 3.0 3.0 0.00 0.00 0.00 69 1012.4
20260905181337 90 90 0.0 3.0 0.00 0.00 0.00 72 1012.5
20260905180836 89 126 0.0 3.0 0.00 0.00 0.00 71 1012.7
20260905180331 89 96 0.0 3.0 0.00 0.00 0.00 72 1012.5
20260905175826 88 78 0.0 2.0 0.00 0.00 0.00 73 1012.5
20260905175326 88 84 0.0 5.0 0.00 0.00 0.00 72 1012.6
20260905174821 89 86 3.0 5.0 0.00 0.00 0.00 70 1012.5
20260905174317 89 332 3.0 3.0 0.00 0.00 0.00 71 1012.6
20260905173812 89 105 1.0 2.0 0.00 0.00 0.00 73 1012.5
20260905173308 88 99 0.0 4.0 0.00 0.00 0.00 74 1012.6
20260905172808 88 201 0.0 2.0 0.00 0.00 0.00 73 1012.8
20260905172306 88 82 0.0 5.0 0.00 0.00 0.00 74 1012.8
20260905171803 87 98 0.0 5.0 0.00 0.00 0.00 76 1012.5
20260905171259 87 90 4.0 4.0 0.00 0.00 0.00 76 1012.8
20260905170755 87 98 0.0 2.0 0.00 0.00 0.00 75 1012.8
20260905170251 88 90 0.0 3.0 0.00 0.00 0.00 76 1012.8
20260905165749 87 77 0.0 4.0 0.00 0.00 0.00 76 1012.9
20260905165246 87 81 1.0 4.0 0.00 0.00 0.00 78 1012.8
20260905164746 87 90 0.0 5.0 0.00 0.00 0.00 77 1012.9
20260905164240 87 90 0.0 3.0 0.00 0.00 0.00 78 1013.0
20260905163736 86 111 0.0 4.0 0.00 0.00 0.00 77 1013.1
20260905163232 86 90 2.0 3.0 0.00 0.00 0.00 78 1012.6
20260905162728 86 270 2.0 3.0 0.00 0.00 0.00 78 1012.9
20260905162227 86 86 0.0 5.0 0.00 0.00 0.00 79 1013.1
20260905161723 86 90 0.0 4.0 0.00 0.00 0.00 78 1013.1
20260905161221 86 86 0.0 7.0 0.00 0.00 0.00 79 1012.9
20260905160719 86 73 2.0 4.0 0.00 0.00 0.00 79 1013.0
20260905160214 85 74 0.0 3.0 0.00 0.00 0.00 80 1013.2
20260905155708 85 74 2.0 4.0 0.00 0.00 0.00 79 1012.8
20260905155207 85 90 4.0 6.0 0.00 0.00 0.00 80 1012.8
20260905154701 85 120 0.0 3.0 0.00 0.00 0.00 80 1012.7
20260905154157 86 117 3.0 5.0 0.00 0.00 0.00 80 1012.7
20260905153653 86 73 0.0 2.0 0.00 0.00 0.00 81 1012.6
20260905153148 86 94 0.0 5.0 0.00 0.00 0.00 79 1012.7
20260905152643 86 121 2.0 7.0 0.00 0.00 0.00 79 1012.5
20260905152138 86 103 1.0 3.0 0.00 0.00 0.00 80 1012.6
20260905151633 86 90 0.0 3.0 0.00 0.00 0.00 80 1012.4
20260905151128 86 66 0.0 3.0 0.00 0.00 0.00 82 1012.5
20260905150624 85 63 0.0 3.0 0.00 0.00 0.00 82 1012.4
20260905150122 85 77 2.0 4.0 0.00 0.00 0.00 83 1012.3
20260905145620 85 110 3.0 3.0 0.00 0.00 0.00 83 1012.4
20260905145119 84 90 0.0 3.0 0.00 0.00 0.00 84 1012.5
20260905144614 85 345 0.0 4.0 0.00 0.00 0.00 83 1012.4
20260905144113 85 77 0.0 2.0 0.00 0.00 0.00 83 1012.7
20260905143608 85 90 2.0 5.0 0.00 0.00 0.00 82 1012.2
20260905143103 85 114 0.0 4.0 0.00 0.00 0.00 82 1012.1
20260905142601 84 90 0.0 4.0 0.00 0.00 0.00 84 1012.1
20260905142056 84 90 2.0 3.0 0.00 0.00 0.00 84 1012.4
20260905141556 84 90 3.0 4.0 0.00 0.00 0.00 86 1012.0
20260905141052 83 77 1.0 3.0 0.00 0.00 0.00 88 1012.1
20260905140548 82 93 4.0 5.0 0.00 0.00 0.00 88 1011.8
20260905140046 83 90 2.0 5.0 0.00 0.00 0.00 88 1011.7
20260905135542 82 96 2.0 3.0 0.00 0.00 0.00 88 1011.7
20260905135036 82 82 0.0 2.0 0.00 0.00 0.00 88 1011.8
20260905134531 83 117 1.0 4.0 0.00 0.00 0.00 88 1012.1
20260905134029 82 90 0.0 4.0 0.00 0.00 0.00 88 1012.2
20260905133525 83 69 0.0 2.0 0.00 0.00 0.00 87 1012.2
20260905133020 83 279 0.0 3.0 0.00 0.00 0.00 87 1012.4
20260905132520 82 81 0.0 3.0 0.00 0.00 0.00 88 1012.4
20260905132020 82 277 3.0 4.0 0.00 0.00 0.00 88 1012.3
20260905131515 82 215 1.0 2.0 0.00 0.00 0.00 88 1012.1
20260905131010 82 346 0.0 3.0 0.00 0.00 0.00 88 1012.1
20260905130509 82 254 0.0 1.0 0.00 0.00 0.00 89 1011.9
20260905130005 81 270 0.0 2.0 0.00 0.00 0.00 89 1011.8
20260905125459 82 287 0.0 4.0 0.00 0.00 0.00 89 1011.8
20260905124954 81 294 2.0 3.0 0.00 0.00 0.00 88 1011.8
20260905124451 82 285 1.0 3.0 0.00 0.00 0.00 88 1011.6
20260905123946 82 263 0.0 2.0 0.00 0.00 0.00 89 1011.6
20260905123443 82 270 1.0 2.0 0.00 0.00 0.00 89 1011.7
20260905122943 81 338 0.0 3.0 0.00 0.00 0.00 90 1011.6
20260905122443 81 262 0.0 2.0 0.00 0.00 0.00 92 1011.3
20260905121938 80 303 2.0 2.0 0.00 0.00 0.00 94 1011.2
20260905121434 79 270 0.0 2.0 0.00 0.00 0.00 97 1011.6
20260905120933 78 270 0.0 2.0 0.00 0.00 0.00 97 1011.3
20260905120427 78 201 3.0 4.0 0.00 0.00 0.00 96 1011.4
20260905115922 78 208 2.0 3.0 0.00 0.00 0.00 96 1011.2
20260905115422 77 201 0.0 2.0 0.00 0.00 0.00 96 1011.4
20260905114917 77 209 1.0 1.0 0.00 0.00 0.00 96 1011.3
20260905114416 77 192 1.0 2.0 0.00 0.00 0.00 97 1011.1
20260905113915 77 203 0.0 0.0 0.00 0.00 0.00 97 1011.1
20260905113411 77 180 0.0 0.0 0.00 0.00 0.00 96 1011.1
20260905112906 77 186 0.0 0.0 0.00 0.00 0.00 96 1011.1
20260905112401 77 209 0.0 1.0 0.00 0.00 0.00 96 1011.1
20260905111856 77 278 0.0 0.0 0.00 0.00 0.00 97 1011.2
20260905111350 77 278 0.0 1.0 0.00 0.00 0.00 97 1011.0
20260905110850 77 340 0.0 1.0 0.00 0.00 0.00 97 1011.1
20260905110344 77 228 0.0 0.0 0.00 0.00 0.00 97 1011.2
20260905105839 77 228 0.0 0.0 0.00 0.00 0.00 97 1011.0
20260905105339 77 228 0.0 0.0 0.00 0.00 0.00 97 1010.9
20260905104833 77 228 0.0 0.0 0.00 0.00 0.00 97 1011.0
20260905104330 77 228 0.0 2.0 0.00 0.00 0.00 97 1010.9
20260905103829 77 261 0.0 0.0 0.00 0.00 0.00 96 1011.2
20260905103324 77 345 0.0 0.0 0.00 0.00 0.00 96 1011.1
20260905102820 77 342 0.0 0.0 0.00 0.00 0.00 96 1011.0
20260905102317 78 342 0.0 2.0 0.00 0.00 0.00 96 1011.1
20260905101817 78 295 2.0 2.0 0.00 0.00 0.00 97 1011.0
20260905101315 77 0 0.0 2.0 0.00 0.00 0.00 97 1011.0
20260905100809 77 328 2.0 2.0 0.00 0.00 0.00 97 1010.8
20260905100305 77 0 0.0 1.0 0.00 0.00 0.00 97 1010.9
20260905095804 77 345 0.0 0.0 0.00 0.00 0.00 97 1011.3
20260905095259 77 0 0.0 0.0 0.00 0.00 0.00 97 1011.0
20260905094754 77 0 0.0 1.0 0.00 0.00 0.00 97 1011.1
20260905094249 77 263 0.0 0.0 0.00 0.00 0.00 97 1011.0
20260905093748 77 263 0.0 0.0 0.00 0.00 0.00 97 1010.8
20260905093244 77 263 0.0 0.0 0.00 0.00 0.00 97 1010.8
20260905092739 77 263 0.0 0.0 0.00 0.00 0.00 96 1011.1
20260905092234 77 263 0.0 0.0 0.00 0.00 0.00 96 1011.1
20260905091729 77 294 0.0 2.0 0.00 0.00 0.00 96 1011.0
20260905091224 78 14 0.0 2.0 0.00 0.00 0.00 96 1011.0
20260905090723 78 276 0.0 2.0 0.00 0.00 0.00 95 1011.1
20260905090219 78 334 1.0 1.0 0.00 0.00 0.00 95 1011.1
20260905085718 78 331 0.0 2.0 0.00 0.00 0.00 95 1011.0
20260905085213 79 57 2.0 3.0 0.00 0.00 0.00 95 1011.3
20260905084713 79 14 0.0 2.0 0.00 0.00 0.00 95 1011.0
20260905084212 78 337 0.0 3.0 0.00 0.00 0.00 96 1010.9
20260905083707 78 255 1.0 2.0 0.00 0.00 0.00 96 1011.0
20260905083203 78 306 0.0 3.0 0.00 0.00 0.00 97 1011.0
20260905082659 78 203 0.0 2.0 0.00 0.00 0.00 97 1010.9
20260905082154 78 352 0.0 0.0 0.00 0.00 0.00 96 1010.6
20260905081649 78 279 1.0 1.0 0.00 0.00 0.00 96 1010.9
20260905081144 78 254 0.0 2.0 0.00 0.00 0.00 96 1011.1
20260905080644 79 249 0.0 1.0 0.00 0.00 0.00 96 1011.0
20260905080143 79 206 0.0 2.0 0.00 0.00 0.00 96 1011.1
20260905075643 79 246 0.0 1.0 0.00 0.00 0.00 96 1010.9
20260905075142 79 270 0.0 2.0 0.00 0.00 0.00 96 1011.0
20260905074641 79 255 1.0 1.0 0.00 0.00 0.00 95 1011.0
20260905074137 79 198 1.0 2.0 0.00 0.00 0.00 95 1011.0
20260905073633 79 279 0.0 1.0 0.00 0.00 0.00 95 1011.0
20260905073128 79 262 0.0 1.0 0.00 0.00 0.00 95 1010.9
20260905072627 80 237 0.0 0.0 0.00 0.00 0.00 94 1011.0
20260905072123 80 255 0.0 1.0 0.00 0.00 0.00 94 1010.9
20260905071619 80 294 0.0 1.0 0.00 0.00 0.00 94 1011.1
20260905071114 80 289 0.0 1.0 0.00 0.00 0.00 94 1011.1
20260905070610 80 255 0.0 2.0 0.00 0.00 0.00 94 1011.2
20260905070105 80 257 0.0 1.0 0.00 0.00 0.00 94 1010.9
20260905065603 80 216 0.0 2.0 0.00 0.00 0.00 94 1011.3
20260905065058 80 206 0.0 3.0 0.00 0.00 0.00 93 1011.2
20260905064553 80 208 2.0 2.0 0.00 0.00 0.00 93 1011.1
20260905064049 80 209 0.0 1.0 0.00 0.00 0.00 93 1011.3
20260905063547 80 212 0.0 2.0 0.00 0.00 0.00 93 1011.3
20260905063044 80 204 2.0 3.0 0.00 0.00 0.00 93 1011.2
20260905062539 80 200 0.0 3.0 0.00 0.00 0.00 94 1011.3
20260905062038 80 188 0.0 2.0 0.00 0.00 0.00 94 1011.2
20260905061534 80 195 0.0 2.0 0.00 0.00 0.00 95 1011.3
20260905061033 80 213 0.0 0.0 0.00 0.00 0.00 95 1011.3
20260905060529 80 213 0.0 0.0 0.00 0.00 0.00 94 1011.4
20260905060025 80 206 1.0 2.0 0.00 0.00 0.00 95 1011.2
20260905055523 80 209 0.0 0.0 0.00 0.00 0.00 94 1011.1
20260905055018 80 195 2.0 2.0 0.00 0.00 0.00 94 1011.4
20260905054514 80 203 0.0 2.0 0.00 0.00 0.00 94 1011.4
20260905054009 80 195 0.0 3.0 0.00 0.00 0.00 94 1011.0
20260905053503 80 200 3.0 3.0 0.00 0.00 0.00 94 1011.2
20260905052959 80 200 0.0 2.0 0.00 0.00 0.00 94 1011.3
20260905052459 81 190 0.0 2.0 0.00 0.00 0.00 93 1011.1
20260905051958 81 197 0.0 2.0 0.00 0.00 0.00 93 1011.2
20260905051454 81 198 0.0 2.0 0.00 0.00 0.00 93 1011.2
20260905050951 81 206 0.0 1.0 0.00 0.00 0.00 93 1011.3
20260905050446 80 195 0.0 2.0 0.00 0.00 0.00 93 1011.3
20260905045942 80 188 0.0 0.0 0.00 0.00 0.00 93 1011.3
20260905045438 81 188 0.0 2.0 0.00 0.00 0.00 93 1011.5
20260905044933 80 203 0.0 0.0 0.00 0.00 0.00 92 1011.5
20260905044433 81 195 0.0 0.0 0.00 0.00 0.00 91 1011.6
20260905043927 81 209 0.0 0.0 0.00 0.00 0.00 91 1011.4
20260905043426 81 209 0.0 0.0 0.00 0.00 0.00 90 1011.7
20260905042921 81 194 0.0 1.0 0.00 0.00 0.00 90 1011.5
20260905042416 81 206 0.0 2.0 0.00 0.00 0.00 89 1011.6
20260905041910 81 254 0.0 2.0 0.00 0.00 0.00 90 1011.6
20260905041407 81 262 0.0 1.0 0.00 0.00 0.00 89 1011.8
20260905040907 82 270 0.0 0.0 0.00 0.00 0.00 89 1011.6
20260905040401 82 270 0.0 2.0 0.00 0.00 0.00 89 1011.7
20260905035900 82 188 0.0 1.0 0.00 0.00 0.00 88 1011.9
20260905035355 82 243 0.0 0.0 0.00 0.00 0.00 88 1012.0
20260905034852 82 203 0.0 1.0 0.00 0.00 0.00 89 1011.9
20260905034348 82 270 0.0 0.0 0.00 0.00 0.00 88 1011.9
20260905033846 82 270 0.0 0.0 0.00 0.00 0.00 87 1011.9
20260905033342 82 206 0.0 2.0 0.00 0.00 0.00 88 1012.0
20260905032840 82 209 0.0 1.0 0.00 0.00 0.00 89 1011.8
20260905032336 82 195 0.0 0.0 0.00 0.00 0.00 89 1012.0
20260905031831 82 195 0.0 0.0 0.00 0.00 0.00 90 1011.7
20260905031327 82 195 0.0 0.0 0.00 0.00 0.00 90 1012.0
20260905030822 82 195 0.0 0.0 0.00 0.00 0.00 89 1012.0
20260905030318 82 195 0.0 0.0 0.00 0.00 0.00 89 1012.0
20260905025817 82 195 0.0 1.0 0.00 0.00 0.00 89 1011.9
20260905025312 82 209 0.0 0.0 0.00 0.00 0.00 88 1012.1
20260905024809 82 209 0.0 0.0 0.00 0.00 0.00 88 1011.8
20260905024304 82 209 0.0 0.0 0.00 0.00 0.00 88 1011.6
20260905023759 82 209 0.0 0.0 0.00 0.00 0.00 86 1011.7
20260905023254 82 209 0.0 0.0 0.00 0.00 0.00 86 1011.8
20260905022753 83 209 0.0 0.0 0.00 0.00 0.00 85 1011.6
20260905022249 83 209 0.0 0.0 0.00 0.00 0.00 84 1011.5
20260905021749 84 209 0.0 0.0 0.00 0.00 0.00 83 1011.4
20260905021243 84 216 0.0 0.0 0.00 0.00 0.00 83 1011.3
20260905020738 84 192 0.0 2.0 0.00 0.00 0.00 83 1011.3
20260905020233 84 209 0.0 1.0 0.00 0.00 0.00 84 1011.1
20260905015732 84 206 0.0 0.0 0.00 0.00 0.00 84 1011.1
20260905015227 84 206 0.0 0.0 0.00 0.00 0.00 83 1011.3
20260905014725 84 201 0.0 0.0 0.00 0.00 0.00 83 1011.3
20260905014221 84 195 0.0 1.0 0.00 0.00 0.00 83 1011.3
20260905013717 84 194 0.0 0.0 0.00 0.00 0.00 83 1011.1
20260905013213 84 194 0.0 0.0 0.00 0.00 0.00 83 1010.9
20260905012708 85 200 0.0 0.0 0.00 0.00 0.00 83 1011.0
20260905012204 85 200 0.0 2.0 0.00 0.00 0.00 82 1010.8
20260905011700 85 209 0.0 1.0 0.00 0.00 0.00 82 1010.9
20260905011156 85 198 0.0 0.0 0.00 0.00 0.00 82 1010.7
20260905010655 85 198 0.0 0.0 0.00 0.00 0.00 81 1010.7
20260905010151 86 198 0.0 2.0 0.00 0.00 0.00 80 1010.6
20260905005648 86 192 0.0 2.0 0.00 0.00 0.00 80 1010.4
20260905005143 86 225 2.0 2.0 0.00 0.00 0.00 81 1010.2
20260905004637 86 173 0.0 0.0 0.00 0.00 0.00 80 1010.6
20260905004132 86 173 0.0 1.0 0.00 0.00 0.00 79 1010.8
20260905003628 87 180 0.0 0.0 0.00 0.00 0.00 80 1010.8
20260905003123 87 180 0.0 0.0 0.00 0.00 0.00 78 1010.7
20260905002619 88 180 0.0 0.0 0.00 0.00 0.00 77 1010.8
20260905002114 88 180 0.0 0.0 0.00 0.00 0.00 77 1010.8
20260905001609 89 188 0.0 1.0 0.00 0.00 0.00 76 1010.6
20260905001108 89 203 0.0 1.0 0.00 0.00 0.00 75 1010.7
20260905000604 90 188 0.0 1.0 0.00 0.00 0.00 74 1010.5
20260905000100 91 194 0.0 1.0 0.00 0.00 0.00 72 1010.6
20260904235554 91 195 0.0 1.0 0.00 0.00 0.00 72 1010.7
20260904235053 93 180 0.0 1.0 0.00 0.00 0.00 70 1010.8
20260904234549 93 187 0.0 0.0 0.00 0.00 0.00 69 1010.9
20260904234044 93 187 0.0 2.0 0.00 0.00 0.00 69 1010.8
20260904233539 93 208 2.0 3.0 0.00 0.00 0.00 68 1010.8
20260904233035 94 206 0.0 2.0 0.00 0.00 0.00 67 1010.7
20260904232532 94 212 0.0 2.0 0.00 0.00 0.00 67 1010.6
20260904232028 94 194 1.0 3.0 0.00 0.00 0.00 67 1010.9
20260904231524 94 198 0.0 3.0 0.00 0.00 0.00 66 1010.9
20260904231018 95 194 3.0 4.0 0.00 0.00 0.00 65 1010.7
20260904230517 95 184 2.0 2.0 0.00 0.00 0.00 64 1010.6
20260904230014 95 203 3.0 3.0 0.00 0.00 0.00 65 1010.9
20260904225511 95 208 2.0 4.0 0.00 0.00 0.00 64 1011.0
20260904225010 95 204 3.0 4.0 0.00 0.00 0.00 64 1010.8
20260904224506 96 217 2.0 3.0 0.00 0.00 0.00 62 1010.8
20260904224005 96 303 2.0 4.0 0.00 0.00 0.00 61 1011.0
20260904223505 96 38 3.0 4.0 0.00 0.00 0.00 63 1010.9
20260904223001 96 195 2.0 4.0 0.00 0.00 0.00 63 1010.7
20260904222455 97 205 3.0 3.0 0.00 0.00 0.00 62 1011.0
20260904221950 97 250 0.0 4.0 0.00 0.00 0.00 62 1010.9
20260904221445 96 208 2.0 3.0 0.00 0.00 0.00 62 1010.6
20260904220940 96 209 3.0 4.0 0.00 0.00 0.00 63 1010.8
20260904220440 94 198 2.0 4.0 0.00 0.00 0.00 66 1010.8
20260904215935 94 210 2.0 5.0 0.00 0.00 0.00 66 1010.6
20260904215430 94 192 3.0 5.0 0.00 0.00 0.00 66 1010.8
20260904214926 94 197 2.0 4.0 0.00 0.00 0.00 65 1010.6
20260904214421 94 201 2.0 7.0 0.00 0.00 0.00 64 1010.6
20260904213921 95 194 3.0 4.0 0.00 0.00 0.00 63 1010.8
20260904213415 96 206 4.0 6.0 0.00 0.00 0.00 62 1010.7
20260904212911 96 191 3.0 5.0 0.00 0.00 0.00 65 1010.7
20260904212410 96 182 4.0 4.0 0.00 0.00 0.00 65 1010.7
20260904211906 95 215 1.0 6.0 0.00 0.00 0.00 64 1010.8
20260904211401 95 194 5.0 5.0 0.00 0.00 0.00 65 1010.8
20260904210856 96 203 2.0 4.0 0.00 0.00 0.00 65 1011.1
20260904210355 96 214 0.0 6.0 0.00 0.00 0.00 65 1011.2
20260904205852 96 203 1.0 5.0 0.00 0.00 0.00 65 1011.2
20260904205347 95 77 0.0 4.0 0.00 0.00 0.00 65 1011.3